THOR ABLESTAR DEB, 119

Orbit data source: Space-Track

THOR ABLESTAR DEB, 119 is space debris in LEO originally from a launch on Thu, 29 Jun 1961 UTC launched from the Air Force Eastern Test Range (AFETR). Debris objects in space refer to the collection of defunct objects orbiting the Earth. Examples of debris include non-operational satellites, rocket bodies, and fragments generated from explosions, collisions, or faulty payload assembly.

Loading next visibility...
Identifier
119, 1961-015D
Orbit
LEO
Country
Flag of USUS
Related business
Manufacturer
Unknown
Mission
Spacecraft
Bus & Motor
Unknown
Mass
Unknown
Launch date (UTC)
1961-06-29 (64 years ago)
Launch vehicle
Unknown
Launch site
Air Force Eastern Test Range (AFETR)
Object type
Payload
Rocket body
Debris
Shape & HBR
Unknown shape, 0.2 m
Radar Cross Section
Medium (>0.1 m² and <1 m²)

Expand to show TLE details & history
Last TLE update: 17 hours ago

TLE from 17 hours ago
0 THOR ABLESTAR DEB
1   119U 61015D   25342.90064111  .00000275  00000-0  14064-3 0  9994
2   119  66.7254 163.5453 0096635  34.8987 325.8394 14.26977498331163
Epoch: 2025-12-08T21:36Z
TLE epoch observation values (Epoch: 2025-12-08T21:36:55.391Z)
Latitude
-0°
Longitude
121.42147°
Altitude
746.752 km
Speed
7.511 km/s
True Right ascension
10h 54m 10s
True Declination
0° 00' 00"
Sunlit
Object was in daylight at epoch
Visualization orbit readout
Latitude
Unknown
Longitude
Unknown
Altitude
Unknown
Speed
Unknown
Apparent Right ascension
Unknown
Apparent Declination
Unknown
Sunlit
N/A
Visualization observer readout
Local Sidereal Time
12:44:29
Azimuth
Unknown
Elevation
Unknown
Doppler factor
Unknown
Orbital elements
Apogee altitude
869.594 km
Perigee altitude
730.858 km
Semi-major axis
7,178.363 km
Eccentricity
0.00966
Inclination
66.7254°
RAAN
163.5453°
Arg. of periapsis
34.8987°
True anomaly
325.21134°
Mean anomaly
325.8394°
Eccentric anomaly
325.526°
Mean motion
3.56866 °/min
Orbital period
100.88 mins
BSTAR
0.00014064
Loading maneuver chart data...
Computing Atmospheric mass density...
Loading historical data...
Loading historical data...
Loading historical data...
Loading historical data...
Loading historical data...
Loading historical data...
Loading historical data...

Documentation

Showing up to 5 results
|